Kingman, AZ

4:59 PM MST on June 22, 2017 (GMT -0700)
Kingman

Weather History for KIGM - March, 2012

Change the Weather History Date:

Wednesday, March 14, 2012

  Actual Average Record
Temperature  
Mean Temperature 55 °F 51 °F  
Max Temperature 73 °F 65 °F 86 °F (2013)
Min Temperature 37 °F 37 °F 25 °F (1962)
Degree Days  
Heating Degree Days 10 14  
Month to date heating degree days 214 210  
Since 1 July heating degree days 2707 2623  
Cooling Degree Days 0 0  
Month to date cooling degree days 0 0  
Year to date cooling degree days 0 0  
Growing Degree Days 6 (Base 50)    
Moisture  
Dew Point 20 °F    
Average Humidity 29    
Maximum Humidity 44    
Minimum Humidity 13    
Precipitation  
Precipitation 0.00 in 0.01 in 1.43 in (1941)
Month to date precipitation T 0.42  
Year to date precipitation 0.77 2.58  
Sea Level Pressure  
Sea Level Pressure 29.92 in    
Wind  
Wind Speed 12 mph (South)    
Max Wind Speed 23 mph    
Max Gust Speed 31 mph    
Visibility 10 miles    
Events      
T = Trace of Precipitation, MM = Missing Value Source: NWS Daily Summary

Daily Weather History Graph

Daily Weather History Graph

Search for Another Location

Airport or City:

Trip Planner

Search our weather history database for the weather conditions in past years. The results will help you decide how hot, cold, wet, or windy it might be!

Date:

Astronomy

Mar. 14, 2012 Rise Set
Actual Time 6:47 AM MST 6:42 PM MST
Civil Twilight 6:21 AM MST 7:08 PM MST
Nautical Twilight 5:52 AM MST 7:37 PM MST
Astronomical Twilight 5:22 AM MST 8:07 PM MST
Moon 1:07 AM MST (3/14) 11:16 AM MST (3/14)
Length of Visible Light 12h 46m
Length of Day
11h 55m
Waning Gibbous, 53% of the Moon is Illuminated
Mar 14
Waning Gibbous
Mar 14
Last Quarter
Mar 22
New
Mar 30
First Quarter
Apr 6
Full

Hourly Weather History & Observations

Time (MST) Temp. Windchill Dew Point Humidity Pressure Visibility Wind Dir Wind Speed Gust Speed Precip Events Conditions
12:48 AM 48.0 °F - 21.9 °F 36% 29.86 in 10.0 mi South 12.7 mph - N/A   Clear
1:48 AM 48.9 °F - 21.0 °F 33% 29.85 in 10.0 mi South 9.2 mph - N/A   Clear
2:48 AM 48.0 °F - 21.0 °F 34% 29.87 in 10.0 mi SE 9.2 mph - N/A   Clear
3:48 AM 48.9 °F - 21.0 °F 33% 29.87 in 10.0 mi SE 11.5 mph - N/A   Clear
4:48 AM 43.0 °F 36.8 °F 19.0 °F 38% 29.88 in 10.0 mi SE 11.5 mph - N/A   Clear
5:48 AM 39.9 °F - 19.9 °F 45% 29.91 in 10.0 mi Calm Calm - N/A   Clear
6:48 AM 46.0 °F 39.6 °F 21.9 °F 39% 29.92 in 10.0 mi SE 15.0 mph - N/A   Clear
7:48 AM 48.9 °F - 21.9 °F 35% 29.95 in 10.0 mi ESE 16.1 mph - N/A   Clear
8:48 AM 57.0 °F - 24.1 °F 28% 29.97 in 10.0 mi ESE 8.1 mph - N/A   Clear
9:48 AM 62.1 °F - 25.0 °F 24% 29.96 in 10.0 mi South 3.5 mph - N/A   Clear
10:48 AM 66.0 °F - 24.1 °F 20% 29.95 in 10.0 mi WSW 11.5 mph - N/A   Clear
11:48 AM 68.0 °F - 23.0 °F 18% 29.94 in 10.0 mi SW 12.7 mph - N/A   Clear
12:48 PM 70.0 °F - 19.9 °F 15% 29.94 in 10.0 mi SW 17.3 mph 25.3 mph N/A   Clear
1:48 PM 71.1 °F - 19.0 °F 14% 29.91 in 10.0 mi SW 16.1 mph 26.5 mph N/A   Clear
2:48 PM 72.0 °F - 19.0 °F 13% 29.89 in 10.0 mi SW 21.9 mph 27.6 mph N/A   Clear
3:48 PM 71.1 °F - 18.0 °F 13% 29.89 in 10.0 mi SW 18.4 mph 27.6 mph N/A   Clear
4:48 PM 71.1 °F - 18.0 °F 13% 29.91 in 10.0 mi SW 18.4 mph 25.3 mph N/A   Clear
5:48 PM 68.0 °F - 17.1 °F 14% 29.92 in 10.0 mi WSW 19.6 mph - N/A   Clear
6:48 PM 64.0 °F - 18.0 °F 17% 29.93 in 10.0 mi SW 12.7 mph - N/A   Clear
7:48 PM 57.9 °F - 18.0 °F 21% 29.95 in 10.0 mi SW 11.5 mph - N/A   Clear
8:48 PM 57.9 °F - 17.1 °F 20% 29.96 in 10.0 mi SSW 8.1 mph - N/A   Clear
9:48 PM 53.1 °F - 17.1 °F 24% 29.97 in 10.0 mi South 9.2 mph - N/A   Clear
10:48 PM 52.0 °F - 16.0 °F 24% 29.98 in 10.0 mi South 5.8 mph - N/A   Clear
11:48 PM 50.0 °F - 19.0 °F 29% 29.98 in 10.0 mi SE 11.5 mph - N/A   Clear